Year,Month,Day,Hour,Minute,Value (Times are PST for barometer in hPa)
2011,09,28,00,00,1026.21
2011,09,28,00,01,1026.23
2011,09,28,00,02,1026.26
2011,09,28,00,03,1026.28
2011,09,28,00,04,1026.28
2011,09,28,00,05,1026.27
2011,09,28,00,06,1026.25
2011,09,28,00,07,1026.26
2011,09,28,00,08,1026.27
2011,09,28,00,09,1026.25
2011,09,28,00,10,1026.26
2011,09,28,00,11,1026.27
2011,09,28,00,12,1026.26
2011,09,28,00,13,1026.29
2011,09,28,00,14,1026.33
2011,09,28,00,15,1026.35
2011,09,28,00,16,1026.34
2011,09,28,00,17,1026.31
2011,09,28,00,18,1026.33
2011,09,28,00,19,1026.38
2011,09,28,00,20,1026.38
2011,09,28,00,21,1026.39
2011,09,28,00,22,1026.43
2011,09,28,00,23,1026.44
2011,09,28,00,24,1026.44
2011,09,28,00,25,1026.47
2011,09,28,00,26,1026.46
2011,09,28,00,27,1026.48
2011,09,28,00,28,1026.47
2011,09,28,00,29,1026.46
2011,09,28,00,30,1026.47
2011,09,28,00,31,1026.46
2011,09,28,00,32,1026.48
2011,09,28,00,33,1026.51
2011,09,28,00,34,1026.54
2011,09,28,00,35,1026.52
2011,09,28,00,36,1026.52
2011,09,28,00,37,1026.54
2011,09,28,00,38,1026.58
2011,09,28,00,39,1026.60
2011,09,28,00,40,1026.63
2011,09,28,00,41,1026.65
2011,09,28,00,42,1026.65
2011,09,28,00,43,1026.66
2011,09,28,00,44,1026.71
2011,09,28,00,45,1026.75
2011,09,28,00,46,1026.78
2011,09,28,00,47,1026.86
2011,09,28,00,48,1026.92
2011,09,28,00,49,1026.92
2011,09,28,00,50,1026.95
2011,09,28,00,51,1027.00
2011,09,28,00,52,1027.02
2011,09,28,00,53,1027.05
2011,09,28,00,54,1027.09
2011,09,28,00,55,1027.09
2011,09,28,00,56,1027.10
2011,09,28,00,57,1027.11
2011,09,28,00,58,1027.09
2011,09,28,00,59,1027.11
2011,09,28,01,00,1027.13
2011,09,28,01,01,1027.17
2011,09,28,01,02,1027.24
2011,09,28,01,03,1027.26
2011,09,28,01,04,1027.27
2011,09,28,01,05,1027.29
2011,09,28,01,06,1027.27
2011,09,28,01,07,1027.31
2011,09,28,01,08,1027.33
2011,09,28,01,09,1027.34
2011,09,28,01,10,1027.38
2011,09,28,01,11,1027.42
2011,09,28,01,12,1027.48
2011,09,28,01,13,1027.47
2011,09,28,01,14,1027.43
2011,09,28,01,15,1027.46
2011,09,28,01,16,1027.50
2011,09,28,01,17,1027.51
2011,09,28,01,18,1027.55
2011,09,28,01,19,1027.57
2011,09,28,01,20,1027.57
2011,09,28,01,21,1027.55
2011,09,28,01,22,1027.53
2011,09,28,01,23,1027.53
2011,09,28,01,24,1027.53
2011,09,28,01,25,1027.54
2011,09,28,01,26,1027.55
2011,09,28,01,27,1027.53
2011,09,28,01,28,1027.51
2011,09,28,01,29,1027.47
2011,09,28,01,30,1027.51
2011,09,28,01,31,1027.54
2011,09,28,01,32,1027.57
2011,09,28,01,33,1027.58
2011,09,28,01,34,1027.61
2011,09,28,01,35,1027.64
2011,09,28,01,36,1027.65
2011,09,28,01,37,1027.65
2011,09,28,01,38,1027.69
2011,09,28,01,39,1027.67
2011,09,28,01,40,1027.66
2011,09,28,01,41,1027.64
2011,09,28,01,42,1027.67
2011,09,28,01,43,1027.67
2011,09,28,01,44,1027.67
2011,09,28,01,45,1027.68
2011,09,28,01,46,1027.70
2011,09,28,01,47,1027.70
2011,09,28,01,48,1027.72
2011,09,28,01,49,1027.74
2011,09,28,01,50,1027.75
2011,09,28,01,51,1027.77
2011,09,28,01,52,1027.77
2011,09,28,01,53,1027.76
2011,09,28,01,54,1027.75
2011,09,28,01,55,1027.77
2011,09,28,01,56,1027.77
2011,09,28,01,57,1027.78
2011,09,28,01,58,1027.81
2011,09,28,01,59,1027.85
2011,09,28,02,00,1027.90
2011,09,28,02,01,1027.92
2011,09,28,02,02,1027.92
2011,09,28,02,03,1027.92
2011,09,28,02,04,1027.91
2011,09,28,02,05,1027.95
2011,09,28,02,06,1027.99
2011,09,28,02,07,1028.01
2011,09,28,02,08,1028.02
2011,09,28,02,09,1028.04
2011,09,28,02,10,1028.04
2011,09,28,02,11,1028.01
2011,09,28,02,12,1027.97
2011,09,28,02,13,1027.96
2011,09,28,02,14,1027.97
2011,09,28,02,15,1027.99
2011,09,28,02,16,1027.97
2011,09,28,02,17,1027.98
2011,09,28,02,18,1028.01
2011,09,28,02,19,1028.02
2011,09,28,02,20,1028.04
2011,09,28,02,21,1028.04
2011,09,28,02,22,1028.05
2011,09,28,02,23,1028.03
2011,09,28,02,24,1027.99
2011,09,28,02,25,1028.03
2011,09,28,02,26,1028.06
2011,09,28,02,27,1028.05
2011,09,28,02,28,1028.06
2011,09,28,02,29,1028.07
2011,09,28,02,30,1028.14
2011,09,28,02,31,1028.19
2011,09,28,02,32,1028.21
2011,09,28,02,33,1028.22
2011,09,28,02,34,1028.24
2011,09,28,02,35,1028.26
2011,09,28,02,36,1028.31
2011,09,28,02,37,1028.31
2011,09,28,02,38,1028.31
2011,09,28,02,39,1028.30
2011,09,28,02,40,1028.28
2011,09,28,02,41,1028.29
2011,09,28,02,42,1028.33
2011,09,28,02,43,1028.35
2011,09,28,02,44,1028.35
2011,09,28,02,45,1028.37
2011,09,28,02,46,1028.39
2011,09,28,02,47,1028.35
2011,09,28,02,48,1028.33
2011,09,28,02,49,1028.31
2011,09,28,02,50,1028.34
2011,09,28,02,51,1028.39
2011,09,28,02,52,1028.41
2011,09,28,02,53,1028.41
2011,09,28,02,54,1028.40
2011,09,28,02,55,1028.39
2011,09,28,02,56,1028.41
2011,09,28,02,57,1028.44
2011,09,28,02,58,1028.47
2011,09,28,02,59,1028.45
2011,09,28,03,00,1028.46
2011,09,28,03,01,1028.47
2011,09,28,03,02,1028.45
2011,09,28,03,06,1028.41
2011,09,28,03,07,1028.41
2011,09,28,03,08,1028.41
2011,09,28,03,09,1028.41
2011,09,28,03,10,1028.39
2011,09,28,03,11,1028.38
2011,09,28,03,12,1028.38
2011,09,28,03,13,1028.40
2011,09,28,03,14,1028.41
2011,09,28,03,15,1028.41
2011,09,28,03,16,1028.41
2011,09,28,03,17,1028.41
2011,09,28,03,18,1028.45
2011,09,28,03,19,1028.44
2011,09,28,03,20,1028.41
2011,09,28,03,21,1028.43
2011,09,28,03,22,1028.43
2011,09,28,03,23,1028.41
2011,09,28,03,24,1028.41
2011,09,28,03,25,1028.43
2011,09,28,03,26,1028.43
2011,09,28,03,27,1028.41
2011,09,28,03,28,1028.43
2011,09,28,03,29,1028.43
2011,09,28,03,30,1028.43
2011,09,28,03,31,1028.45
2011,09,28,03,32,1028.45
2011,09,28,03,33,1028.45
2011,09,28,03,34,1028.43
2011,09,28,03,35,1028.41
2011,09,28,03,36,1028.41
2011,09,28,03,37,1028.41
2011,09,28,03,38,1028.43
2011,09,28,03,39,1028.46
2011,09,28,03,40,1028.50
2011,09,28,03,41,1028.51
2011,09,28,03,42,1028.51
2011,09,28,03,43,1028.49
2011,09,28,03,44,1028.48
2011,09,28,03,45,1028.50
2011,09,28,03,46,1028.53
2011,09,28,03,47,1028.57
2011,09,28,03,48,1028.62
2011,09,28,03,49,1028.67
2011,09,28,03,50,1028.68
2011,09,28,03,51,1028.68
2011,09,28,03,52,1028.70
2011,09,28,03,53,1028.70
2011,09,28,03,54,1028.66
2011,09,28,03,55,1028.65
2011,09,28,03,56,1028.67
2011,09,28,03,57,1028.68
2011,09,28,03,58,1028.72
2011,09,28,03,59,1028.75
2011,09,28,04,00,1028.77
2011,09,28,04,01,1028.79
2011,09,28,04,02,1028.81
2011,09,28,04,03,1028.83
2011,09,28,04,04,1028.83
2011,09,28,04,05,1028.84
2011,09,28,04,06,1028.82
2011,09,28,04,07,1028.81
2011,09,28,04,08,1028.80
2011,09,28,04,09,1028.79
2011,09,28,04,10,1028.81
2011,09,28,04,11,1028.84
2011,09,28,04,12,1028.85
2011,09,28,04,13,1028.87
2011,09,28,04,14,1028.89
2011,09,28,04,15,1028.87
2011,09,28,04,16,1028.85
2011,09,28,04,17,1028.87
2011,09,28,04,18,1028.87
2011,09,28,04,19,1028.85
2011,09,28,04,20,1028.83
2011,09,28,04,21,1028.82
2011,09,28,04,22,1028.81
2011,09,28,04,23,1028.79
2011,09,28,04,24,1028.79
2011,09,28,04,25,1028.82
2011,09,28,04,26,1028.83
2011,09,28,04,27,1028.82
2011,09,28,04,28,1028.82
2011,09,28,04,29,1028.84
2011,09,28,04,30,1028.85
2011,09,28,04,31,1028.85
2011,09,28,04,32,1028.85
2011,09,28,04,33,1028.89
2011,09,28,04,34,1028.92
2011,09,28,04,35,1028.97
2011,09,28,04,36,1028.98
2011,09,28,04,37,1028.92
2011,09,28,04,38,1028.91
2011,09,28,04,39,1028.89
2011,09,28,04,40,1028.89
2011,09,28,04,41,1028.92
2011,09,28,04,42,1028.92
2011,09,28,04,43,1028.92
2011,09,28,04,44,1028.90
2011,09,28,04,45,1028.89
2011,09,28,04,46,1028.87
2011,09,28,04,47,1028.89
2011,09,28,04,48,1028.94
2011,09,28,04,49,1028.95
2011,09,28,04,50,1028.95
2011,09,28,04,51,1028.99
2011,09,28,04,52,1029.02
2011,09,28,04,53,1029.02
2011,09,28,04,54,1029.04
2011,09,28,04,55,1029.08
2011,09,28,04,56,1029.11
2011,09,28,04,57,1029.12
2011,09,28,04,58,1029.12
2011,09,28,04,59,1029.12
2011,09,28,05,00,1029.12
2011,09,28,05,01,1029.09
2011,09,28,05,02,1029.09
2011,09,28,05,03,1029.14
2011,09,28,05,04,1029.16
2011,09,28,05,05,1029.14
2011,09,28,05,06,1029.14
2011,09,28,05,07,1029.16
2011,09,28,05,08,1029.20
2011,09,28,05,09,1029.23
2011,09,28,05,10,1029.26
2011,09,28,05,11,1029.29
2011,09,28,05,12,1029.33
2011,09,28,05,13,1029.36
2011,09,28,05,14,1029.38
2011,09,28,05,15,1029.37
2011,09,28,05,16,1029.36
2011,09,28,05,17,1029.36
2011,09,28,05,18,1029.36
2011,09,28,05,19,1029.36
2011,09,28,05,20,1029.34
2011,09,28,05,21,1029.31
2011,09,28,05,22,1029.29
2011,09,28,05,23,1029.29
2011,09,28,05,24,1029.31
2011,09,28,05,25,1029.36
2011,09,28,05,26,1029.39
2011,09,28,05,27,1029.41
2011,09,28,05,28,1029.44
2011,09,28,05,29,1029.46
2011,09,28,05,30,1029.50
2011,09,28,05,31,1029.53
2011,09,28,05,32,1029.53
2011,09,28,05,33,1029.49
2011,09,28,05,34,1029.44
2011,09,28,05,35,1029.47
2011,09,28,05,36,1029.50
2011,09,28,05,37,1029.52
2011,09,28,05,38,1029.51
2011,09,28,05,39,1029.52
2011,09,28,05,40,1029.55
2011,09,28,05,41,1029.58
2011,09,28,05,42,1029.60
2011,09,28,05,43,1029.62
2011,09,28,05,44,1029.63
2011,09,28,05,45,1029.63
2011,09,28,05,46,1029.61
2011,09,28,05,47,1029.62
2011,09,28,05,48,1029.63
2011,09,28,05,49,1029.65
2011,09,28,05,50,1029.69
2011,09,28,05,51,1029.70
2011,09,28,05,52,1029.70
2011,09,28,05,53,1029.68
2011,09,28,05,54,1029.69
2011,09,28,05,55,1029.72
2011,09,28,05,56,1029.75
2011,09,28,05,57,1029.81
2011,09,28,05,58,1029.86
2011,09,28,05,59,1029.91
2011,09,28,06,00,1029.94
2011,09,28,06,01,1029.96
2011,09,28,06,02,1029.93
2011,09,28,06,03,1029.92
2011,09,28,06,04,1029.94
2011,09,28,06,05,1029.94
2011,09,28,06,06,1029.96
2011,09,28,06,07,1029.97
2011,09,28,06,08,1029.97
2011,09,28,06,09,1030.01
2011,09,28,06,10,1030.04
2011,09,28,06,11,1030.04
2011,09,28,06,12,1030.06
2011,09,28,06,13,1030.07
2011,09,28,06,14,1030.09
2011,09,28,06,15,1030.11
2011,09,28,06,16,1030.13
2011,09,28,06,17,1030.16
2011,09,28,06,18,1030.19
2011,09,28,06,19,1030.25
2011,09,28,06,20,1030.26
2011,09,28,06,21,1030.22
2011,09,28,06,22,1030.19
2011,09,28,06,23,1030.19
2011,09,28,06,24,1030.21
2011,09,28,06,25,1030.23
2011,09,28,06,26,1030.28
2011,09,28,06,27,1030.33
2011,09,28,06,28,1030.32
2011,09,28,06,29,1030.32
2011,09,28,06,30,1030.32
2011,09,28,06,31,1030.33
2011,09,28,06,32,1030.34
2011,09,28,06,33,1030.34
2011,09,28,06,34,1030.36
2011,09,28,06,35,1030.38
2011,09,28,06,36,1030.40
2011,09,28,06,37,1030.39
2011,09,28,06,38,1030.36
2011,09,28,06,39,1030.34
2011,09,28,06,40,1030.36
2011,09,28,06,41,1030.38
2011,09,28,06,42,1030.40
2011,09,28,06,43,1030.45
2011,09,28,06,44,1030.46
2011,09,28,06,45,1030.48
2011,09,28,06,46,1030.53
2011,09,28,06,47,1030.55
2011,09,28,06,48,1030.57
2011,09,28,06,49,1030.58
2011,09,28,06,50,1030.58
2011,09,28,06,51,1030.54
2011,09,28,06,52,1030.55
2011,09,28,06,53,1030.60
2011,09,28,06,54,1030.58
2011,09,28,06,55,1030.58
2011,09,28,06,56,1030.61
2011,09,28,06,57,1030.59
2011,09,28,06,58,1030.60
2011,09,28,06,59,1030.61
2011,09,28,07,00,1030.61
2011,09,28,07,01,1030.61
2011,09,28,07,02,1030.61
2011,09,28,07,03,1030.63
2011,09,28,07,04,1030.63
2011,09,28,07,05,1030.59
2011,09,28,07,06,1030.58
2011,09,28,07,07,1030.55
2011,09,28,07,08,1030.51
2011,09,28,07,09,1030.49
2011,09,28,07,10,1030.48
2011,09,28,07,11,1030.50
2011,09,28,07,12,1030.51
2011,09,28,07,13,1030.51
2011,09,28,07,14,1030.51
2011,09,28,07,15,1030.51
2011,09,28,07,16,1030.47
2011,09,28,07,17,1030.46
2011,09,28,07,18,1030.48
2011,09,28,07,19,1030.46
2011,09,28,07,20,1030.46
2011,09,28,07,21,1030.50
2011,09,28,07,22,1030.51
2011,09,28,07,23,1030.49
2011,09,28,07,24,1030.55
2011,09,28,07,25,1030.61
2011,09,28,07,26,1030.65
2011,09,28,07,27,1030.66
2011,09,28,07,28,1030.69
2011,09,28,07,29,1030.75
2011,09,28,07,30,1030.77
2011,09,28,07,31,1030.76
2011,09,28,07,32,1030.77
2011,09,28,07,33,1030.75
2011,09,28,07,34,1030.74
2011,09,28,07,35,1030.73
2011,09,28,07,36,1030.71
2011,09,28,07,37,1030.68
2011,09,28,07,38,1030.70
2011,09,28,07,39,1030.72
2011,09,28,07,40,1030.70
2011,09,28,07,41,1030.68
2011,09,28,07,42,1030.70
2011,09,28,07,43,1030.72
2011,09,28,07,44,1030.72
2011,09,28,07,45,1030.72
2011,09,28,07,46,1030.70
2011,09,28,07,47,1030.70
2011,09,28,07,48,1030.70
2011,09,28,07,49,1030.68
2011,09,28,07,50,1030.71
2011,09,28,07,51,1030.75
2011,09,28,07,52,1030.79
2011,09,28,07,53,1030.82
2011,09,28,07,54,1030.82
2011,09,28,07,55,1030.83
2011,09,28,07,56,1030.85
2011,09,28,07,57,1030.83
2011,09,28,07,58,1030.82
2011,09,28,07,59,1030.82
2011,09,28,08,00,1030.85
2011,09,28,08,01,1030.88
2011,09,28,08,02,1030.86
2011,09,28,08,03,1030.87
2011,09,28,08,04,1030.90
2011,09,28,08,05,1030.92
2011,09,28,08,06,1030.92
2011,09,28,08,07,1030.92
2011,09,28,08,08,1030.90
2011,09,28,08,09,1030.85
2011,09,28,08,10,1030.82
2011,09,28,08,11,1030.83
2011,09,28,08,12,1030.85
2011,09,28,08,13,1030.87
2011,09,28,08,14,1030.88
2011,09,28,08,15,1030.88
2011,09,28,08,16,1030.82
2011,09,28,08,17,1030.77
2011,09,28,08,18,1030.73
2011,09,28,08,19,1030.74
2011,09,28,08,20,1030.75
2011,09,28,08,21,1030.75
2011,09,28,08,22,1030.73
2011,09,28,08,23,1030.75
2011,09,28,08,24,1030.80
2011,09,28,08,25,1030.78
2011,09,28,08,26,1030.77
2011,09,28,08,27,1030.82
2011,09,28,08,28,1030.85
2011,09,28,08,29,1030.86
2011,09,28,08,30,1030.88
2011,09,28,08,31,1030.88
2011,09,28,08,32,1030.90
2011,09,28,08,33,1030.96
2011,09,28,08,34,1031.01
2011,09,28,08,35,1031.02
2011,09,28,08,36,1031.04
2011,09,28,08,37,1031.04
2011,09,28,08,38,1031.02
2011,09,28,08,39,1031.03
2011,09,28,08,40,1031.04
2011,09,28,08,41,1031.05
2011,09,28,08,42,1031.10
2011,09,28,08,43,1031.14
2011,09,28,08,44,1031.16
2011,09,28,08,45,1031.14
2011,09,28,08,46,1031.11
2011,09,28,08,47,1031.09
2011,09,28,08,48,1031.06
2011,09,28,08,49,1031.02
2011,09,28,08,50,1031.02
2011,09,28,08,51,1031.02
2011,09,28,08,52,1031.02
2011,09,28,08,53,1031.02
2011,09,28,08,54,1031.02
2011,09,28,08,55,1031.04
2011,09,28,08,56,1031.07
2011,09,28,08,57,1031.12
2011,09,28,08,58,1031.19
2011,09,28,08,59,1031.24
2011,09,28,09,00,1031.26
2011,09,28,09,01,1031.24
2011,09,28,09,02,1031.22
2011,09,28,09,03,1031.20
2011,09,28,09,04,1031.15
2011,09,28,09,05,1031.10
2011,09,28,09,06,1031.06
2011,09,28,09,07,1031.02
2011,09,28,09,08,1030.99
2011,09,28,09,09,1030.95
2011,09,28,09,10,1030.95
2011,09,28,09,11,1030.97
2011,09,28,09,12,1030.97
2011,09,28,09,13,1030.97
2011,09,28,09,14,1030.97
2011,09,28,09,15,1030.95
2011,09,28,09,16,1030.98
2011,09,28,09,17,1031.02
2011,09,28,09,18,1031.01
2011,09,28,09,19,1030.99
2011,09,28,09,20,1030.97
2011,09,28,09,21,1030.99
2011,09,28,09,22,1031.04
2011,09,28,09,23,1031.03
2011,09,28,09,24,1031.02
2011,09,28,09,25,1031.02
2011,09,28,09,26,1030.99
2011,09,28,09,27,1030.94
2011,09,28,09,28,1030.93
2011,09,28,09,29,1030.91
2011,09,28,09,30,1030.90
2011,09,28,09,31,1030.94
2011,09,28,09,32,1030.91
2011,09,28,09,33,1030.88
2011,09,28,09,34,1030.88
2011,09,28,09,35,1030.88
2011,09,28,09,36,1030.86
2011,09,28,09,37,1030.87
2011,09,28,09,38,1030.87
2011,09,28,09,39,1030.80
2011,09,28,09,40,1030.76
2011,09,28,09,41,1030.77
2011,09,28,09,42,1030.75
2011,09,28,09,43,1030.79
2011,09,28,09,44,1030.82
2011,09,28,09,45,1030.82
2011,09,28,09,46,1030.80
2011,09,28,09,47,1030.78
2011,09,28,09,48,1030.80
2011,09,28,09,49,1030.80
2011,09,28,09,50,1030.78
2011,09,28,09,51,1030.81
2011,09,28,09,52,1030.89
2011,09,28,09,53,1030.92
2011,09,28,09,54,1030.93
2011,09,28,09,55,1030.95
2011,09,28,09,56,1030.94
2011,09,28,09,57,1030.92
2011,09,28,09,58,1030.94
2011,09,28,09,59,1030.97
2011,09,28,10,00,1031.01
2011,09,28,10,01,1031.02
2011,09,28,10,02,1031.02
2011,09,28,10,03,1031.02
2011,09,28,10,04,1031.02
2011,09,28,10,05,1031.02
2011,09,28,10,06,1031.01
2011,09,28,10,07,1031.01
2011,09,28,10,08,1031.02
2011,09,28,10,09,1031.06
2011,09,28,10,10,1031.07
2011,09,28,10,11,1031.05
2011,09,28,10,12,1031.07
2011,09,28,10,13,1031.07
2011,09,28,10,14,1031.05
2011,09,28,10,15,1031.04
2011,09,28,10,16,1031.03
2011,09,28,10,17,1031.03
2011,09,28,10,18,1031.05
2011,09,28,10,19,1031.07
2011,09,28,10,20,1031.05
2011,09,28,10,21,1031.08
2011,09,28,10,22,1031.08
2011,09,28,10,23,1031.03
2011,09,28,10,24,1031.04
2011,09,28,10,25,1031.05
2011,09,28,10,26,1031.05
2011,09,28,10,27,1031.05
2011,09,28,10,28,1031.05
2011,09,28,10,29,1031.05
2011,09,28,10,30,1031.05
2011,09,28,10,31,1031.05
2011,09,28,10,32,1031.07
2011,09,28,10,33,1031.10
2011,09,28,10,34,1031.12
2011,09,28,10,35,1031.12
2011,09,28,10,36,1031.14
2011,09,28,10,37,1031.16
2011,09,28,10,38,1031.16
2011,09,28,10,39,1031.16
2011,09,28,10,40,1031.14
2011,09,28,10,41,1031.14
2011,09,28,10,42,1031.16
2011,09,28,10,43,1031.18
2011,09,28,10,44,1031.17
2011,09,28,10,45,1031.14
2011,09,28,10,46,1031.12
2011,09,28,10,47,1031.10
2011,09,28,10,48,1031.07
2011,09,28,10,49,1031.05
2011,09,28,10,50,1031.07
2011,09,28,10,51,1031.10
2011,09,28,10,52,1031.10
2011,09,28,10,53,1031.07
2011,09,28,10,54,1031.04
2011,09,28,10,55,1031.02
2011,09,28,10,56,1031.01
2011,09,28,10,57,1030.99
2011,09,28,10,58,1031.01
2011,09,28,10,59,1030.98
2011,09,28,11,00,1030.94
2011,09,28,11,01,1030.92
2011,09,28,11,02,1030.92
2011,09,28,11,03,1030.92
2011,09,28,11,04,1030.89
2011,09,28,11,05,1030.85
2011,09,28,11,06,1030.89
2011,09,28,11,07,1030.92
2011,09,28,11,08,1030.90
2011,09,28,11,09,1030.87
2011,09,28,11,10,1030.86
2011,09,28,11,11,1030.86
2011,09,28,11,12,1030.84
2011,09,28,11,13,1030.87
2011,09,28,11,14,1030.90
2011,09,28,11,15,1030.87
2011,09,28,11,16,1030.85
2011,09,28,11,17,1030.85
2011,09,28,11,18,1030.85
2011,09,28,11,19,1030.82
2011,09,28,11,20,1030.80
2011,09,28,11,21,1030.82
2011,09,28,11,22,1030.79
2011,09,28,11,23,1030.75
2011,09,28,11,24,1030.73
2011,09,28,11,25,1030.70
2011,09,28,11,26,1030.66
2011,09,28,11,27,1030.63
2011,09,28,11,28,1030.61
2011,09,28,11,29,1030.61
2011,09,28,11,30,1030.58
2011,09,28,11,31,1030.56
2011,09,28,11,32,1030.57
2011,09,28,11,33,1030.56
2011,09,28,11,34,1030.58
2011,09,28,11,35,1030.59
2011,09,28,11,36,1030.63
2011,09,28,11,37,1030.65
2011,09,28,11,38,1030.65
2011,09,28,11,39,1030.63
2011,09,28,11,40,1030.58
2011,09,28,11,41,1030.53
2011,09,28,11,42,1030.47
2011,09,28,11,43,1030.44
2011,09,28,11,44,1030.44
2011,09,28,11,45,1030.43
2011,09,28,11,46,1030.40
2011,09,28,11,47,1030.38
2011,09,28,11,48,1030.36
2011,09,28,11,49,1030.34
2011,09,28,11,50,1030.32
2011,09,28,11,51,1030.31
2011,09,28,11,52,1030.30
2011,09,28,11,53,1030.26
2011,09,28,11,54,1030.26
2011,09,28,11,55,1030.30
2011,09,28,11,56,1030.30
2011,09,28,11,57,1030.28
2011,09,28,11,58,1030.28
2011,09,28,11,59,1030.28
2011,09,28,12,00,1030.28
2011,09,28,12,01,1030.26
2011,09,28,12,02,1030.24
2011,09,28,12,03,1030.24
2011,09,28,12,04,1030.23
2011,09,28,12,05,1030.19
2011,09,28,12,06,1030.17
2011,09,28,12,07,1030.17
2011,09,28,12,08,1030.16
2011,09,28,12,09,1030.14
2011,09,28,12,10,1030.13
2011,09,28,12,11,1030.12
2011,09,28,12,12,1030.11
2011,09,28,12,13,1030.07
2011,09,28,12,14,1030.06
2011,09,28,12,15,1030.04
2011,09,28,12,16,1029.97
2011,09,28,12,17,1029.94
2011,09,28,12,18,1029.94
2011,09,28,12,19,1029.89
2011,09,28,12,20,1029.85
2011,09,28,12,21,1029.84
2011,09,28,12,22,1029.82
2011,09,28,12,23,1029.82
2011,09,28,12,24,1029.82
2011,09,28,12,25,1029.80
2011,09,28,12,26,1029.80
2011,09,28,12,27,1029.82
2011,09,28,12,28,1029.85
2011,09,28,12,29,1029.89
2011,09,28,12,30,1029.92
2011,09,28,12,31,1029.94
2011,09,28,12,32,1029.95
2011,09,28,12,33,1029.97
2011,09,28,12,34,1029.94
2011,09,28,12,35,1029.90
2011,09,28,12,36,1029.87
2011,09,28,12,37,1029.84
2011,09,28,12,38,1029.82
2011,09,28,12,39,1029.75
2011,09,28,12,40,1029.69
2011,09,28,12,41,1029.65
2011,09,28,12,42,1029.59
2011,09,28,12,43,1029.55
2011,09,28,12,44,1029.49
2011,09,28,12,45,1029.48
2011,09,28,12,46,1029.48
2011,09,28,12,47,1029.43
2011,09,28,12,48,1029.39
2011,09,28,12,49,1029.41
2011,09,28,12,50,1029.40
2011,09,28,12,51,1029.36
2011,09,28,12,52,1029.34
2011,09,28,12,53,1029.33
2011,09,28,12,54,1029.31
2011,09,28,12,55,1029.29
2011,09,28,12,56,1029.28
2011,09,28,12,57,1029.26
2011,09,28,12,58,1029.21
2011,09,28,12,59,1029.13
2011,09,28,13,00,1029.09
2011,09,28,13,01,1029.04
2011,09,28,13,02,1028.97
2011,09,28,13,03,1028.97
2011,09,28,13,04,1028.99
2011,09,28,13,05,1028.99
2011,09,28,13,06,1028.99
2011,09,28,13,07,1028.97
2011,09,28,13,08,1028.92
2011,09,28,13,09,1028.89
2011,09,28,13,10,1028.89
2011,09,28,13,11,1028.84
2011,09,28,13,12,1028.79
2011,09,28,13,13,1028.77
2011,09,28,13,14,1028.75
2011,09,28,13,15,1028.70
2011,09,28,13,16,1028.56
2011,09,28,13,17,1028.49
2011,09,28,13,18,1028.51
2011,09,28,13,19,1028.51
2011,09,28,13,20,1028.55
2011,09,28,13,21,1028.53
2011,09,28,13,22,1028.49
2011,09,28,13,23,1028.53
2011,09,28,13,24,1028.53
2011,09,28,13,25,1028.51
2011,09,28,13,26,1028.51
2011,09,28,13,27,1028.48
2011,09,28,13,28,1028.43
2011,09,28,13,29,1028.43
2011,09,28,13,30,1028.43
2011,09,28,13,31,1028.43
2011,09,28,13,32,1028.42
2011,09,28,13,33,1028.36
2011,09,28,13,34,1028.35
2011,09,28,13,35,1028.35
2011,09,28,13,36,1028.33
2011,09,28,13,37,1028.30
2011,09,28,13,38,1028.28
2011,09,28,13,39,1028.28
2011,09,28,13,40,1028.29
2011,09,28,13,41,1028.31
2011,09,28,13,42,1028.34
2011,09,28,13,43,1028.38
2011,09,28,13,44,1028.38
2011,09,28,13,45,1028.37
2011,09,28,13,46,1028.31
2011,09,28,13,47,1028.25
2011,09,28,13,48,1028.21
2011,09,28,13,49,1028.16
2011,09,28,13,50,1028.08
2011,09,28,13,51,1028.01
2011,09,28,13,52,1027.95
2011,09,28,13,53,1027.94
2011,09,28,13,54,1027.94
2011,09,28,13,55,1027.91
2011,09,28,13,56,1027.88
2011,09,28,13,57,1027.90
2011,09,28,13,58,1027.90
2011,09,28,13,59,1027.90
2011,09,28,14,00,1027.92
2011,09,28,14,01,1027.95
2011,09,28,14,02,1027.91
2011,09,28,14,03,1027.89
2011,09,28,14,04,1027.94
2011,09,28,14,05,1027.94
2011,09,28,14,06,1027.95
2011,09,28,14,07,1027.94
2011,09,28,14,08,1027.92
2011,09,28,14,09,1027.92
2011,09,28,14,10,1027.92
2011,09,28,14,11,1027.92
2011,09,28,14,12,1027.89
2011,09,28,14,13,1027.88
2011,09,28,14,14,1027.90
2011,09,28,14,15,1027.90
2011,09,28,14,16,1027.87
2011,09,28,14,17,1027.85
2011,09,28,14,18,1027.82
2011,09,28,14,19,1027.78
2011,09,28,14,20,1027.79
2011,09,28,14,21,1027.76
2011,09,28,14,22,1027.72
2011,09,28,14,23,1027.72
2011,09,28,14,24,1027.72
2011,09,28,14,25,1027.69
2011,09,28,14,26,1027.65
2011,09,28,14,27,1027.63
2011,09,28,14,28,1027.62
2011,09,28,14,29,1027.59
2011,09,28,14,30,1027.58
2011,09,28,14,31,1027.59
2011,09,28,14,32,1027.55
2011,09,28,14,33,1027.58
2011,09,28,14,34,1027.62
2011,09,28,14,35,1027.59
2011,09,28,14,36,1027.57
2011,09,28,14,37,1027.58
2011,09,28,14,38,1027.53
2011,09,28,14,39,1027.45
2011,09,28,14,40,1027.42
2011,09,28,14,41,1027.38
2011,09,28,14,42,1027.39
2011,09,28,14,43,1027.40
2011,09,28,14,44,1027.39
2011,09,28,14,45,1027.44
2011,09,28,14,46,1027.48
2011,09,28,14,47,1027.51
2011,09,28,14,48,1027.53
2011,09,28,14,49,1027.56
2011,09,28,14,50,1027.59
2011,09,28,14,51,1027.54
2011,09,28,14,52,1027.50
2011,09,28,14,53,1027.50
2011,09,28,14,54,1027.48
2011,09,28,14,55,1027.46
2011,09,28,14,56,1027.45
2011,09,28,14,57,1027.43
2011,09,28,14,58,1027.43
2011,09,28,14,59,1027.42
2011,09,28,15,00,1027.40
2011,09,28,15,01,1027.35
2011,09,28,15,02,1027.30
2011,09,28,15,03,1027.28
2011,09,28,15,04,1027.28
2011,09,28,15,05,1027.30
2011,09,28,15,06,1027.28
2011,09,28,15,07,1027.25
2011,09,28,15,08,1027.21
2011,09,28,15,09,1027.16
2011,09,28,15,10,1027.13
2011,09,28,15,11,1027.11
2011,09,28,15,12,1027.11
2011,09,28,15,13,1027.10
2011,09,28,15,14,1027.09
2011,09,28,15,15,1027.11
2011,09,28,15,16,1027.11
2011,09,28,15,17,1027.11
2011,09,28,15,18,1027.11
2011,09,28,15,19,1027.10
2011,09,28,15,20,1027.07
2011,09,28,15,21,1027.08
2011,09,28,15,22,1027.07
2011,09,28,15,23,1027.07
2011,09,28,15,24,1027.03
2011,09,28,15,25,1026.96
2011,09,28,15,26,1026.94
2011,09,28,15,27,1026.91
2011,09,28,15,28,1026.83
2011,09,28,15,29,1026.76
2011,09,28,15,30,1026.72
2011,09,28,15,31,1026.72
2011,09,28,15,32,1026.69
2011,09,28,15,33,1026.65
2011,09,28,15,34,1026.64
2011,09,28,15,35,1026.59
2011,09,28,15,36,1026.58
2011,09,28,15,37,1026.60
2011,09,28,15,38,1026.57
2011,09,28,15,39,1026.55
2011,09,28,15,40,1026.50
2011,09,28,15,41,1026.46
2011,09,28,15,42,1026.50
2011,09,28,15,43,1026.53
2011,09,28,15,44,1026.56
2011,09,28,15,45,1026.58
2011,09,28,15,46,1026.55
2011,09,28,15,47,1026.55
2011,09,28,15,48,1026.56
2011,09,28,15,49,1026.55
2011,09,28,15,50,1026.54
2011,09,28,15,51,1026.54
2011,09,28,15,52,1026.56
2011,09,28,15,53,1026.58
2011,09,28,15,54,1026.57
2011,09,28,15,55,1026.56
2011,09,28,15,56,1026.58
2011,09,28,15,57,1026.57
2011,09,28,15,58,1026.54
2011,09,28,15,59,1026.47